Year,Month,Day,Hour,Minute,Value (Times are PST for temperature in C)
2014,11,10,00,00,4.90
2014,11,10,00,01,4.90
2014,11,10,00,02,4.80
2014,11,10,00,03,4.80
2014,11,10,00,04,4.80
2014,11,10,00,05,4.80
2014,11,10,00,06,4.80
2014,11,10,00,07,4.80
2014,11,10,00,08,4.80
2014,11,10,00,09,4.80
2014,11,10,00,10,4.90
2014,11,10,00,11,4.90
2014,11,10,00,12,5.00
2014,11,10,00,13,5.10
2014,11,10,00,14,5.20
2014,11,10,00,15,5.30
2014,11,10,00,16,5.40
2014,11,10,00,17,5.60
2014,11,10,00,18,5.70
2014,11,10,00,19,5.70
2014,11,10,00,20,5.80
2014,11,10,00,21,5.80
2014,11,10,00,22,5.80
2014,11,10,00,23,5.80
2014,11,10,00,24,5.80
2014,11,10,00,25,5.80
2014,11,10,00,26,5.90
2014,11,10,00,27,5.90
2014,11,10,00,28,5.90
2014,11,10,00,29,5.90
2014,11,10,00,30,5.90
2014,11,10,00,31,6.00
2014,11,10,00,32,6.10
2014,11,10,00,33,6.10
2014,11,10,00,34,6.20
2014,11,10,00,35,6.30
2014,11,10,00,36,6.30
2014,11,10,00,37,6.30
2014,11,10,00,38,6.30
2014,11,10,00,39,6.30
2014,11,10,00,40,6.30
2014,11,10,00,41,6.30
2014,11,10,00,42,6.20
2014,11,10,00,43,6.20
2014,11,10,00,44,6.20
2014,11,10,00,45,6.20
2014,11,10,00,46,6.20
2014,11,10,00,47,6.20
2014,11,10,00,48,6.30
2014,11,10,00,49,6.30
2014,11,10,00,50,6.20
2014,11,10,00,51,6.20
2014,11,10,00,52,6.20
2014,11,10,00,53,6.20
2014,11,10,00,54,6.20
2014,11,10,00,55,6.10
2014,11,10,00,56,6.10
2014,11,10,00,57,6.00
2014,11,10,00,58,6.00
2014,11,10,00,59,5.90
2014,11,10,01,00,5.90
2014,11,10,01,01,5.80
2014,11,10,01,02,5.80
2014,11,10,01,03,5.70
2014,11,10,01,04,5.70
2014,11,10,01,05,5.60
2014,11,10,01,06,5.60
2014,11,10,01,07,5.50
2014,11,10,01,08,5.50
2014,11,10,01,09,5.40
2014,11,10,01,10,5.40
2014,11,10,01,11,5.40
2014,11,10,01,12,5.30
2014,11,10,01,13,5.30
2014,11,10,01,14,5.30
2014,11,10,01,15,5.20
2014,11,10,01,16,5.20
2014,11,10,01,17,5.10
2014,11,10,01,18,5.10
2014,11,10,01,19,5.10
2014,11,10,01,20,5.00
2014,11,10,01,21,5.00
2014,11,10,01,22,5.00
2014,11,10,01,23,5.00
2014,11,10,01,24,5.00
2014,11,10,01,25,5.00
2014,11,10,01,26,4.90
2014,11,10,01,27,4.90
2014,11,10,01,28,4.90
2014,11,10,01,29,4.90
2014,11,10,01,30,4.90
2014,11,10,01,31,4.80
2014,11,10,01,32,4.80
2014,11,10,01,33,4.80
2014,11,10,01,34,4.70
2014,11,10,01,35,4.70
2014,11,10,01,36,4.60
2014,11,10,01,37,4.60
2014,11,10,01,38,4.60
2014,11,10,01,39,4.60
2014,11,10,01,40,4.50
2014,11,10,01,41,4.60
2014,11,10,01,42,4.60
2014,11,10,01,43,4.60
2014,11,10,01,44,4.50
2014,11,10,01,45,4.50
2014,11,10,01,46,4.50
2014,11,10,01,47,4.50
2014,11,10,01,48,4.40
2014,11,10,01,49,4.40
2014,11,10,01,50,4.40
2014,11,10,01,51,4.40
2014,11,10,01,52,4.40
2014,11,10,01,53,4.40
2014,11,10,01,54,4.50
2014,11,10,01,55,4.50
2014,11,10,01,56,4.50
2014,11,10,01,57,4.50
2014,11,10,01,58,4.50
2014,11,10,01,59,4.50
2014,11,10,02,00,4.40
2014,11,10,02,01,4.40
2014,11,10,02,02,4.40
2014,11,10,02,03,4.40
2014,11,10,02,04,4.30
2014,11,10,02,05,4.30
2014,11,10,02,06,4.30
2014,11,10,02,07,4.30
2014,11,10,02,08,4.20
2014,11,10,02,09,4.20
2014,11,10,02,10,4.20
2014,11,10,02,11,4.20
2014,11,10,02,12,4.20
2014,11,10,02,13,4.20
2014,11,10,02,14,4.20
2014,11,10,02,15,4.20
2014,11,10,02,16,4.20
2014,11,10,02,17,4.20
2014,11,10,02,18,4.30
2014,11,10,02,19,4.30
2014,11,10,02,20,4.30
2014,11,10,02,21,4.30
2014,11,10,02,22,4.40
2014,11,10,02,23,4.40
2014,11,10,02,24,4.50
2014,11,10,02,25,4.50
2014,11,10,02,26,4.50
2014,11,10,02,27,4.50
2014,11,10,02,28,4.50
2014,11,10,02,29,4.50
2014,11,10,02,30,4.40
2014,11,10,02,31,4.40
2014,11,10,02,32,4.40
2014,11,10,02,33,4.40
2014,11,10,02,34,4.40
2014,11,10,02,35,4.40
2014,11,10,02,36,4.30
2014,11,10,02,37,4.30
2014,11,10,02,38,4.30
2014,11,10,02,39,4.30
2014,11,10,02,40,4.30
2014,11,10,02,41,4.30
2014,11,10,02,42,4.30
2014,11,10,02,43,4.40
2014,11,10,02,44,4.50
2014,11,10,02,45,4.60
2014,11,10,02,46,4.70
2014,11,10,02,47,4.80
2014,11,10,02,48,5.00
2014,11,10,02,49,5.10
2014,11,10,02,50,5.20
2014,11,10,02,51,5.30
2014,11,10,02,52,5.40
2014,11,10,02,53,5.60
2014,11,10,02,54,5.70
2014,11,10,02,55,5.70
2014,11,10,02,56,5.80
2014,11,10,02,57,5.80
2014,11,10,02,58,5.90
2014,11,10,02,59,5.90
2014,11,10,03,00,5.90
2014,11,10,03,01,6.00
2014,11,10,03,02,6.00
2014,11,10,03,03,6.10
2014,11,10,03,04,6.10
2014,11,10,03,05,6.20
2014,11,10,03,06,6.20
2014,11,10,03,07,6.20
2014,11,10,03,08,6.30
2014,11,10,03,09,6.30
2014,11,10,03,10,6.30
2014,11,10,03,11,6.30
2014,11,10,03,12,6.30
2014,11,10,03,13,6.30
2014,11,10,03,14,6.40
2014,11,10,03,15,6.40
2014,11,10,03,16,6.40
2014,11,10,03,17,6.40
2014,11,10,03,18,6.40
2014,11,10,03,19,6.40
2014,11,10,03,20,6.40
2014,11,10,03,21,6.40
2014,11,10,03,22,6.40
2014,11,10,03,23,6.40
2014,11,10,03,24,6.40
2014,11,10,03,25,6.50
2014,11,10,03,26,6.50
2014,11,10,03,27,6.50
2014,11,10,03,28,6.50
2014,11,10,03,29,6.50
2014,11,10,03,30,6.50
2014,11,10,03,31,6.50
2014,11,10,03,32,6.50
2014,11,10,03,33,6.50
2014,11,10,03,34,6.40
2014,11,10,03,35,6.40
2014,11,10,03,36,6.40
2014,11,10,03,37,6.30
2014,11,10,03,38,6.30
2014,11,10,03,39,6.20
2014,11,10,03,40,6.20
2014,11,10,03,41,6.10
2014,11,10,03,42,6.10
2014,11,10,03,43,6.00
2014,11,10,03,44,6.00
2014,11,10,03,45,5.90
2014,11,10,03,46,5.80
2014,11,10,03,47,5.80
2014,11,10,03,48,5.70
2014,11,10,03,49,5.70
2014,11,10,03,50,5.60
2014,11,10,03,51,5.60
2014,11,10,03,52,5.50
2014,11,10,03,53,5.40
2014,11,10,03,54,5.30
2014,11,10,03,55,5.30
2014,11,10,03,56,5.20
2014,11,10,03,57,5.10
2014,11,10,03,58,5.10
2014,11,10,03,59,5.00
2014,11,10,04,00,5.00
2014,11,10,04,01,4.90
2014,11,10,04,02,4.90
2014,11,10,04,03,4.90
2014,11,10,04,04,4.90
2014,11,10,04,05,4.80
2014,11,10,04,06,4.80
2014,11,10,04,07,4.80
2014,11,10,04,08,4.80
2014,11,10,04,09,4.80
2014,11,10,04,10,4.70
2014,11,10,04,11,4.70
2014,11,10,04,12,4.70
2014,11,10,04,13,4.70
2014,11,10,04,14,4.60
2014,11,10,04,15,4.60
2014,11,10,04,16,4.50
2014,11,10,04,17,4.50
2014,11,10,04,18,4.40
2014,11,10,04,19,4.40
2014,11,10,04,20,4.30
2014,11,10,04,21,4.20
2014,11,10,04,22,4.20
2014,11,10,04,23,4.10
2014,11,10,04,24,4.10
2014,11,10,04,25,4.10
2014,11,10,04,26,4.10
2014,11,10,04,27,4.10
2014,11,10,04,28,4.10
2014,11,10,04,29,4.10
2014,11,10,04,30,4.10
2014,11,10,04,31,4.10
2014,11,10,04,32,4.00
2014,11,10,04,33,4.00
2014,11,10,04,34,4.00
2014,11,10,04,35,4.00
2014,11,10,04,36,4.00
2014,11,10,04,37,3.90
2014,11,10,04,38,3.90
2014,11,10,04,39,3.90
2014,11,10,04,40,3.90
2014,11,10,04,41,3.90
2014,11,10,04,42,3.80
2014,11,10,04,43,3.80
2014,11,10,04,44,3.80
2014,11,10,04,45,3.80
2014,11,10,04,46,3.80
2014,11,10,04,47,3.80
2014,11,10,04,48,3.90
2014,11,10,04,49,3.90
2014,11,10,04,50,3.90
2014,11,10,04,51,4.00
2014,11,10,04,52,4.10
2014,11,10,04,53,4.20
2014,11,10,04,54,4.20
2014,11,10,04,55,4.30
2014,11,10,04,56,4.40
2014,11,10,04,57,4.40
2014,11,10,04,58,4.40
2014,11,10,04,59,4.40
2014,11,10,05,00,4.40
2014,11,10,05,01,4.40
2014,11,10,05,02,4.40
2014,11,10,05,03,4.40
2014,11,10,05,04,4.40
2014,11,10,05,05,4.40
2014,11,10,05,06,4.30
2014,11,10,05,07,4.30
2014,11,10,05,08,4.30
2014,11,10,05,09,4.30
2014,11,10,05,10,4.30
2014,11,10,05,11,4.30
2014,11,10,05,12,4.20
2014,11,10,05,13,4.20
2014,11,10,05,14,4.20
2014,11,10,05,15,4.20
2014,11,10,05,16,4.20
2014,11,10,05,17,4.20
2014,11,10,05,18,4.20
2014,11,10,05,19,4.20
2014,11,10,05,20,4.20
2014,11,10,05,21,4.10
2014,11,10,05,22,4.10
2014,11,10,05,23,4.10
2014,11,10,05,24,4.10
2014,11,10,05,25,4.10
2014,11,10,05,26,4.00
2014,11,10,05,27,4.00
2014,11,10,05,28,3.90
2014,11,10,05,29,3.90
2014,11,10,05,30,3.80
2014,11,10,05,31,3.80
2014,11,10,05,32,3.80
2014,11,10,05,33,3.70
2014,11,10,05,34,3.70
2014,11,10,05,35,3.70
2014,11,10,05,36,3.60
2014,11,10,05,37,3.60
2014,11,10,05,38,3.60
2014,11,10,05,39,3.50
2014,11,10,05,40,3.50
2014,11,10,05,41,3.50
2014,11,10,05,42,3.50
2014,11,10,05,43,3.50
2014,11,10,05,44,3.50
2014,11,10,05,45,3.40
2014,11,10,05,46,3.40
2014,11,10,05,47,3.40
2014,11,10,05,48,3.40
2014,11,10,05,49,3.40
2014,11,10,05,50,3.40
2014,11,10,05,51,3.40
2014,11,10,05,52,3.40
2014,11,10,05,53,3.40
2014,11,10,05,54,3.30
2014,11,10,05,55,3.30
2014,11,10,05,56,3.30
2014,11,10,05,57,3.30
2014,11,10,05,58,3.30
2014,11,10,05,59,3.30
2014,11,10,06,00,3.30
2014,11,10,06,01,3.30
2014,11,10,06,02,3.30
2014,11,10,06,03,3.30
2014,11,10,06,04,3.30
2014,11,10,06,05,3.30
2014,11,10,06,06,3.30
2014,11,10,06,07,3.30
2014,11,10,06,08,3.20
2014,11,10,06,09,3.20
2014,11,10,06,10,3.20
2014,11,10,06,11,3.20
2014,11,10,06,12,3.20
2014,11,10,06,13,3.10
2014,11,10,06,14,3.10
2014,11,10,06,15,3.10
2014,11,10,06,16,3.10
2014,11,10,06,17,3.10
2014,11,10,06,18,3.10
2014,11,10,06,19,3.10
2014,11,10,06,20,3.10
2014,11,10,06,21,3.10
2014,11,10,06,22,3.10
2014,11,10,06,23,3.10
2014,11,10,06,24,3.10
2014,11,10,06,25,3.10
2014,11,10,06,26,3.10
2014,11,10,06,27,3.10
2014,11,10,06,28,3.10
2014,11,10,06,29,3.10
2014,11,10,06,30,3.10
2014,11,10,06,31,3.10
2014,11,10,06,32,3.10
2014,11,10,06,33,3.20
2014,11,10,06,34,3.20
2014,11,10,06,35,3.20
2014,11,10,06,36,3.20
2014,11,10,06,37,3.20
2014,11,10,06,38,3.20
2014,11,10,06,39,3.20
2014,11,10,06,40,3.20
2014,11,10,06,41,3.20
2014,11,10,06,42,3.20
2014,11,10,06,43,3.20
2014,11,10,06,44,3.20
2014,11,10,06,45,3.20
2014,11,10,06,46,3.10
2014,11,10,06,47,3.10
2014,11,10,06,48,3.10
2014,11,10,06,49,3.10
2014,11,10,06,50,3.10
2014,11,10,06,51,3.10
2014,11,10,06,52,3.10
2014,11,10,06,53,3.10
2014,11,10,06,54,3.10
2014,11,10,06,55,3.10
2014,11,10,06,56,3.10
2014,11,10,06,57,3.10
2014,11,10,06,58,3.10
2014,11,10,06,59,3.10
2014,11,10,07,00,3.00
2014,11,10,07,01,3.00
2014,11,10,07,02,3.00
2014,11,10,07,03,3.00
2014,11,10,07,04,2.90
2014,11,10,07,05,2.90
2014,11,10,07,06,2.90
2014,11,10,07,07,2.90
2014,11,10,07,08,2.90
2014,11,10,07,09,2.90
2014,11,10,07,10,3.00
2014,11,10,07,11,3.00
2014,11,10,07,12,3.00
2014,11,10,07,13,3.00
2014,11,10,07,14,3.00
2014,11,10,07,15,3.00
2014,11,10,07,16,3.00
2014,11,10,07,17,3.00
2014,11,10,07,18,3.10
2014,11,10,07,19,3.10
2014,11,10,07,20,3.00
2014,11,10,07,21,3.00
2014,11,10,07,22,3.00
2014,11,10,07,23,3.00
2014,11,10,07,24,3.00
2014,11,10,07,25,3.00
2014,11,10,07,26,3.10
2014,11,10,07,27,3.10
2014,11,10,07,28,3.10
2014,11,10,07,29,3.10
2014,11,10,07,30,3.10
2014,11,10,07,31,3.10
2014,11,10,07,32,3.10
2014,11,10,07,33,3.10
2014,11,10,07,34,3.10
2014,11,10,07,35,3.10
2014,11,10,07,36,3.00
2014,11,10,07,37,3.00
2014,11,10,07,38,3.00
2014,11,10,07,39,3.00
2014,11,10,07,40,3.00
2014,11,10,07,41,3.00
2014,11,10,07,42,2.90
2014,11,10,07,43,2.90
2014,11,10,07,44,2.90
2014,11,10,07,45,2.90
2014,11,10,07,46,2.90
2014,11,10,07,47,2.90
2014,11,10,07,48,2.90
2014,11,10,07,49,2.90
2014,11,10,07,50,2.90
2014,11,10,07,51,2.90
2014,11,10,07,52,2.90
2014,11,10,07,53,2.90
2014,11,10,07,54,2.90
2014,11,10,07,55,2.90
2014,11,10,07,56,2.90
2014,11,10,07,57,2.90
2014,11,10,07,58,2.90
2014,11,10,07,59,2.90
2014,11,10,08,00,2.90
2014,11,10,08,01,2.90
2014,11,10,08,02,2.90
2014,11,10,08,03,2.90
2014,11,10,08,04,2.90
2014,11,10,08,05,3.00
2014,11,10,08,06,3.00
2014,11,10,08,07,3.00
2014,11,10,08,08,3.10
2014,11,10,08,09,3.10
2014,11,10,08,10,3.10
2014,11,10,08,11,3.20
2014,11,10,08,12,3.20
2014,11,10,08,13,3.20
2014,11,10,08,14,3.30
2014,11,10,08,15,3.40
2014,11,10,08,16,3.50
2014,11,10,08,17,3.60
2014,11,10,08,18,3.70
2014,11,10,08,19,3.80
2014,11,10,08,20,3.90
2014,11,10,08,21,4.00
2014,11,10,08,22,4.10
2014,11,10,08,23,4.20
2014,11,10,08,24,4.20
2014,11,10,08,25,4.30
2014,11,10,08,26,4.30
2014,11,10,08,27,4.30
2014,11,10,08,28,4.40
2014,11,10,08,29,4.40
2014,11,10,08,30,4.40
2014,11,10,08,31,4.40
2014,11,10,08,32,4.50
2014,11,10,08,33,4.50
2014,11,10,08,34,4.50
2014,11,10,08,35,4.60
2014,11,10,08,36,4.60
2014,11,10,08,37,4.60
2014,11,10,08,38,4.60
2014,11,10,08,39,4.60
2014,11,10,08,40,4.60
2014,11,10,08,41,4.60
2014,11,10,08,42,4.60
2014,11,10,08,43,4.70
2014,11,10,08,44,4.70
2014,11,10,08,45,4.70
2014,11,10,08,46,4.80
2014,11,10,08,47,4.80
2014,11,10,08,48,4.80
2014,11,10,08,49,4.90
2014,11,10,08,50,5.00
2014,11,10,08,51,5.00
2014,11,10,08,52,5.10
2014,11,10,08,53,5.20
2014,11,10,08,54,5.30
2014,11,10,08,55,5.40
2014,11,10,08,56,5.50
2014,11,10,08,57,5.60
2014,11,10,08,58,5.60
2014,11,10,08,59,5.70
2014,11,10,09,00,5.80
2014,11,10,09,01,5.90
2014,11,10,09,02,6.00
2014,11,10,09,03,6.10
2014,11,10,09,04,6.20
2014,11,10,09,05,6.30
2014,11,10,09,06,6.40
2014,11,10,09,07,6.50
2014,11,10,09,08,6.60
2014,11,10,09,09,6.80
2014,11,10,09,10,6.90
2014,11,10,09,11,7.00
2014,11,10,09,12,7.00
2014,11,10,09,13,7.10
2014,11,10,09,14,7.20
2014,11,10,09,15,7.30
2014,11,10,09,16,7.30
2014,11,10,09,17,7.40
2014,11,10,09,18,7.50
2014,11,10,09,19,7.60
2014,11,10,09,20,7.70
2014,11,10,09,21,7.80
2014,11,10,09,22,7.80
2014,11,10,09,23,7.90
2014,11,10,09,24,8.00
2014,11,10,09,25,8.00
2014,11,10,09,26,8.10
2014,11,10,09,27,8.10
2014,11,10,09,28,8.10
2014,11,10,09,29,8.10
2014,11,10,09,30,8.10
2014,11,10,09,31,8.10
2014,11,10,09,32,8.20
2014,11,10,09,33,8.20
2014,11,10,09,34,8.20
2014,11,10,09,35,8.30
2014,11,10,09,36,8.30
2014,11,10,09,37,8.30
2014,11,10,09,38,8.40
2014,11,10,09,39,8.40
2014,11,10,09,40,8.40
2014,11,10,09,41,8.40
2014,11,10,09,42,8.40
2014,11,10,09,43,8.50
2014,11,10,09,44,8.50
2014,11,10,09,45,8.60
2014,11,10,09,46,8.60
2014,11,10,09,47,8.70
2014,11,10,09,48,8.70
2014,11,10,09,49,8.70
2014,11,10,09,50,8.80
2014,11,10,09,51,8.80
2014,11,10,09,52,8.80
2014,11,10,09,53,8.90
2014,11,10,09,54,8.90
2014,11,10,09,55,8.90
2014,11,10,09,56,9.00
2014,11,10,09,57,9.00
2014,11,10,09,58,9.10
2014,11,10,09,59,9.10
2014,11,10,10,00,9.20
2014,11,10,10,01,9.30
2014,11,10,10,02,9.40
2014,11,10,10,03,9.50
2014,11,10,10,04,9.50
2014,11,10,10,05,9.60
2014,11,10,10,06,9.70
2014,11,10,10,07,9.70
2014,11,10,10,08,9.70
2014,11,10,10,09,9.70
2014,11,10,10,10,9.70
2014,11,10,10,11,9.70
2014,11,10,10,12,9.70
2014,11,10,10,13,9.70
2014,11,10,10,14,9.70
2014,11,10,10,15,9.60
2014,11,10,10,16,9.60
2014,11,10,10,17,9.60
2014,11,10,10,18,9.60
2014,11,10,10,19,9.70
2014,11,10,10,20,9.70
2014,11,10,10,21,9.70
2014,11,10,10,22,9.70
2014,11,10,10,23,9.70
2014,11,10,10,24,9.70
2014,11,10,10,25,9.70
2014,11,10,10,26,9.80
2014,11,10,10,27,9.80
2014,11,10,10,28,9.80
2014,11,10,10,29,9.80
2014,11,10,10,30,9.80
2014,11,10,10,31,9.90
2014,11,10,10,32,9.90
2014,11,10,10,33,9.90
2014,11,10,10,34,9.80
2014,11,10,10,35,9.90
2014,11,10,10,36,9.90
2014,11,10,10,37,9.90
2014,11,10,10,38,9.90
2014,11,10,10,39,9.90
2014,11,10,10,40,9.90
2014,11,10,10,41,9.90
2014,11,10,10,42,9.90
2014,11,10,10,43,9.90
2014,11,10,10,44,9.90
2014,11,10,10,45,9.80
2014,11,10,10,46,9.70
2014,11,10,10,47,9.70
2014,11,10,10,48,9.70
2014,11,10,10,49,9.60
2014,11,10,10,50,9.60
2014,11,10,10,51,9.60
2014,11,10,10,52,9.60
2014,11,10,10,53,9.60
2014,11,10,10,54,9.50
2014,11,10,10,55,9.50
2014,11,10,10,56,9.50
2014,11,10,10,57,9.50
2014,11,10,10,58,9.50
2014,11,10,10,59,9.50
2014,11,10,11,00,9.60
2014,11,10,11,01,9.60
2014,11,10,11,02,9.60
2014,11,10,11,03,9.60
2014,11,10,11,04,9.50
2014,11,10,11,05,9.60
2014,11,10,11,06,9.60
2014,11,10,11,07,9.60
2014,11,10,11,08,9.70
2014,11,10,11,09,9.70
2014,11,10,11,10,9.70
2014,11,10,11,11,9.70
2014,11,10,11,12,9.70
2014,11,10,11,13,9.70
2014,11,10,11,14,9.70
2014,11,10,11,15,9.80
2014,11,10,11,16,9.80
2014,11,10,11,17,9.80
2014,11,10,11,18,9.80
2014,11,10,11,19,9.80
2014,11,10,11,20,9.90
2014,11,10,11,21,10.00
2014,11,10,11,22,10.00
2014,11,10,11,23,10.10
2014,11,10,11,24,10.20
2014,11,10,11,25,10.20
2014,11,10,11,26,10.20
2014,11,10,11,27,10.20
2014,11,10,11,28,10.30
2014,11,10,11,29,10.30
2014,11,10,11,30,10.30
2014,11,10,11,31,10.40
2014,11,10,11,32,10.40
2014,11,10,11,33,10.50
2014,11,10,11,34,10.50
2014,11,10,11,35,10.40
2014,11,10,11,36,10.40
2014,11,10,11,37,10.40
2014,11,10,11,38,10.40
2014,11,10,11,39,10.40
2014,11,10,11,40,10.50
2014,11,10,11,41,10.50
2014,11,10,11,42,10.50
2014,11,10,11,43,10.60
2014,11,10,11,44,10.60
2014,11,10,11,45,10.60
2014,11,10,11,46,10.70
2014,11,10,11,47,10.70
2014,11,10,11,48,10.70
2014,11,10,11,49,10.70
2014,11,10,11,50,10.70
2014,11,10,11,51,10.70
2014,11,10,11,52,10.70
2014,11,10,11,53,10.70
2014,11,10,11,54,10.60
2014,11,10,11,55,10.50
2014,11,10,11,56,10.50
2014,11,10,11,57,10.50
2014,11,10,11,58,10.40
2014,11,10,11,59,10.30
2014,11,10,12,00,10.30
2014,11,10,12,01,10.30
2014,11,10,12,02,10.30
2014,11,10,12,03,10.30
2014,11,10,12,04,10.30
2014,11,10,12,05,10.30
2014,11,10,12,06,10.30
2014,11,10,12,07,10.30
2014,11,10,12,08,10.30
2014,11,10,12,09,10.40
2014,11,10,12,10,10.40
2014,11,10,12,11,10.30
2014,11,10,12,12,10.30
2014,11,10,12,13,10.30
2014,11,10,12,14,10.30
2014,11,10,12,15,10.30
2014,11,10,12,16,10.30
2014,11,10,12,17,10.30
2014,11,10,12,18,10.20
2014,11,10,12,19,10.20
2014,11,10,12,20,10.20
2014,11,10,12,21,10.20
2014,11,10,12,22,10.20
2014,11,10,12,23,10.20
2014,11,10,12,24,10.30
2014,11,10,12,25,10.30
2014,11,10,12,26,10.20
2014,11,10,12,27,10.20
2014,11,10,12,28,10.20
2014,11,10,12,29,10.10
2014,11,10,12,30,10.10
2014,11,10,12,31,10.10
2014,11,10,12,32,10.10
2014,11,10,12,33,10.10
2014,11,10,12,34,10.10
2014,11,10,12,35,10.20
2014,11,10,12,36,10.20
2014,11,10,12,37,10.20
2014,11,10,12,38,10.20
2014,11,10,12,39,10.20
2014,11,10,12,40,10.20
2014,11,10,12,41,10.20
2014,11,10,12,42,10.20
2014,11,10,12,43,10.20
2014,11,10,12,44,10.10
2014,11,10,12,45,10.10
2014,11,10,12,46,10.20
2014,11,10,12,47,10.20
2014,11,10,12,48,10.20
2014,11,10,12,49,10.20
2014,11,10,12,50,10.20
2014,11,10,12,51,10.30
2014,11,10,12,52,10.30
2014,11,10,12,53,10.20
2014,11,10,12,54,10.20
2014,11,10,12,55,10.20
2014,11,10,12,56,10.20
2014,11,10,12,57,10.20
2014,11,10,12,58,10.20
2014,11,10,12,59,10.20
2014,11,10,13,00,10.20
2014,11,10,13,01,10.30
2014,11,10,13,02,10.30
2014,11,10,13,03,10.30
2014,11,10,13,04,10.30
2014,11,10,13,05,10.30
2014,11,10,13,06,10.30
2014,11,10,13,07,10.30
2014,11,10,13,08,10.40
2014,11,10,13,09,10.40
2014,11,10,13,10,10.40
2014,11,10,13,11,10.40
2014,11,10,13,12,10.40
2014,11,10,13,13,10.40
2014,11,10,13,14,10.40
2014,11,10,13,15,10.40
2014,11,10,13,16,10.40
2014,11,10,13,17,10.40
2014,11,10,13,18,10.40
2014,11,10,13,19,10.40
2014,11,10,13,20,10.40
2014,11,10,13,21,10.40
2014,11,10,13,22,10.40
2014,11,10,13,23,10.50
2014,11,10,13,24,10.50
2014,11,10,13,25,10.50
2014,11,10,13,26,10.50
2014,11,10,13,27,10.50
2014,11,10,13,28,10.50
2014,11,10,13,29,10.40
2014,11,10,13,30,10.40
2014,11,10,13,31,10.40
2014,11,10,13,32,10.30
2014,11,10,13,33,10.20
2014,11,10,13,34,10.20
2014,11,10,13,35,10.20
2014,11,10,13,36,10.30
2014,11,10,13,37,10.30
2014,11,10,13,38,10.30
2014,11,10,13,39,10.40
2014,11,10,13,40,10.40
2014,11,10,13,41,10.50
2014,11,10,13,42,10.50
2014,11,10,13,43,10.50
2014,11,10,13,44,10.50
2014,11,10,13,45,10.40
2014,11,10,13,46,10.50
2014,11,10,13,47,10.50
2014,11,10,13,48,10.50
2014,11,10,13,49,10.50
2014,11,10,13,50,10.60
2014,11,10,13,51,10.60
2014,11,10,13,52,10.60
2014,11,10,13,53,10.70
2014,11,10,13,54,10.70
2014,11,10,13,55,10.80
2014,11,10,13,56,10.90
2014,11,10,13,57,10.90
2014,11,10,13,58,10.90
2014,11,10,13,59,10.90
2014,11,10,14,00,11.00
2014,11,10,14,01,11.00
2014,11,10,14,02,11.00
2014,11,10,14,03,11.00
2014,11,10,14,04,11.10
2014,11,10,14,05,11.10
2014,11,10,14,06,11.10
2014,11,10,14,07,11.10
2014,11,10,14,08,11.00
2014,11,10,14,09,11.00
2014,11,10,14,10,11.00
2014,11,10,14,11,11.00
2014,11,10,14,12,11.00
2014,11,10,14,13,11.00
2014,11,10,14,14,11.00
2014,11,10,14,15,10.90
2014,11,10,14,16,10.90
2014,11,10,14,17,10.90
2014,11,10,14,18,10.90
2014,11,10,14,19,10.90
2014,11,10,14,20,11.00
2014,11,10,14,21,11.00
2014,11,10,14,22,11.00
2014,11,10,14,23,11.00
2014,11,10,14,24,11.00
2014,11,10,14,25,10.90
2014,11,10,14,26,10.90
2014,11,10,14,27,10.80
2014,11,10,14,28,10.80
2014,11,10,14,29,10.80
2014,11,10,14,30,10.90
2014,11,10,14,31,10.90
2014,11,10,14,32,11.00
2014,11,10,14,33,11.10
2014,11,10,14,34,11.20
2014,11,10,14,35,11.20
2014,11,10,14,36,11.20
2014,11,10,14,37,11.20
2014,11,10,14,38,11.20
2014,11,10,14,39,11.20
2014,11,10,14,40,11.20
2014,11,10,14,41,11.20
2014,11,10,14,42,11.20
2014,11,10,14,43,11.20
2014,11,10,14,44,11.20
2014,11,10,14,45,11.20
2014,11,10,14,46,11.20
2014,11,10,14,47,11.20
2014,11,10,14,48,11.20
2014,11,10,14,49,11.30
2014,11,10,14,50,11.30
2014,11,10,14,51,11.20
2014,11,10,14,52,11.20
2014,11,10,14,53,11.10
2014,11,10,14,54,11.10
2014,11,10,14,55,11.00
2014,11,10,14,56,11.00
2014,11,10,14,57,10.90
2014,11,10,14,58,10.90
2014,11,10,14,59,10.90
2014,11,10,15,00,10.90
2014,11,10,15,01,10.90
2014,11,10,15,02,10.90
2014,11,10,15,03,10.90
2014,11,10,15,04,10.90
2014,11,10,15,05,10.90
2014,11,10,15,06,10.90
2014,11,10,15,07,11.00
2014,11,10,15,08,11.00
2014,11,10,15,09,11.00
2014,11,10,15,10,11.00
2014,11,10,15,11,11.10
2014,11,10,15,12,11.10
2014,11,10,15,13,11.10
2014,11,10,15,14,11.10
2014,11,10,15,15,11.10
2014,11,10,15,16,11.10
2014,11,10,15,17,11.10
2014,11,10,15,18,11.10
2014,11,10,15,19,11.10
2014,11,10,15,20,11.20
2014,11,10,15,21,11.20
2014,11,10,15,22,11.20
2014,11,10,15,23,11.20
2014,11,10,15,24,11.20
2014,11,10,15,25,11.20
2014,11,10,15,26,11.20
2014,11,10,15,27,11.20
2014,11,10,15,28,11.10
2014,11,10,15,29,11.10
2014,11,10,15,30,11.10
2014,11,10,15,31,11.10
2014,11,10,15,32,11.00
2014,11,10,15,33,11.00
2014,11,10,15,34,10.90
2014,11,10,15,35,10.80
2014,11,10,15,36,10.70
2014,11,10,15,37,10.60
2014,11,10,15,38,10.50
2014,11,10,15,39,10.40
2014,11,10,15,40,10.30
2014,11,10,15,41,10.30
2014,11,10,15,42,10.20
2014,11,10,15,43,10.20
2014,11,10,15,44,10.10
2014,11,10,15,45,10.10
2014,11,10,15,46,10.00
2014,11,10,15,47,10.00
2014,11,10,15,48,9.90
2014,11,10,15,49,9.80
2014,11,10,15,50,9.80
2014,11,10,15,51,9.80
2014,11,10,15,52,9.70
2014,11,10,15,53,9.70
2014,11,10,15,54,9.70
2014,11,10,15,55,9.60
2014,11,10,15,56,9.50
2014,11,10,15,57,9.50
2014,11,10,15,58,9.40
2014,11,10,15,59,9.40
2014,11,10,16,00,9.30
2014,11,10,16,01,9.30
2014,11,10,16,02,9.20
2014,11,10,16,03,9.10
2014,11,10,16,04,9.10
2014,11,10,16,05,9.00
2014,11,10,16,06,9.00
2014,11,10,16,07,8.90
2014,11,10,16,08,8.90
2014,11,10,16,09,8.80
2014,11,10,16,10,8.80
2014,11,10,16,11,8.70
2014,11,10,16,12,8.70
2014,11,10,16,13,8.60
2014,11,10,16,14,8.50
2014,11,10,16,15,8.40
2014,11,10,16,16,8.30
2014,11,10,16,17,8.30
2014,11,10,16,18,8.20
2014,11,10,16,19,8.20
2014,11,10,16,20,8.10
2014,11,10,16,21,8.00
2014,11,10,16,22,7.90
2014,11,10,16,23,7.90
2014,11,10,16,24,7.80
2014,11,10,16,25,7.80
2014,11,10,16,26,7.70
2014,11,10,16,27,7.70
2014,11,10,16,28,7.60
2014,11,10,16,29,7.50
2014,11,10,16,30,7.40
2014,11,10,16,31,7.30
2014,11,10,16,32,7.30
2014,11,10,16,33,7.20
2014,11,10,16,34,7.10
2014,11,10,16,35,7.10
2014,11,10,16,36,7.00
2014,11,10,16,37,6.90
2014,11,10,16,38,6.90
2014,11,10,16,39,6.80
2014,11,10,16,40,6.70
2014,11,10,16,41,6.70
2014,11,10,16,42,6.60
2014,11,10,16,43,6.60
2014,11,10,16,44,6.50
2014,11,10,16,45,6.50
2014,11,10,16,46,6.40
2014,11,10,16,47,6.40
2014,11,10,16,48,6.30
2014,11,10,16,49,6.30
2014,11,10,16,50,6.20
2014,11,10,16,51,6.20
2014,11,10,16,52,6.10
2014,11,10,16,53,6.00
2014,11,10,16,54,6.00
2014,11,10,16,55,5.90
2014,11,10,16,56,5.90
2014,11,10,16,57,5.80
2014,11,10,16,58,5.80
2014,11,10,16,59,5.80
2014,11,10,17,00,5.70
2014,11,10,17,01,5.70
2014,11,10,17,02,5.70
2014,11,10,17,03,5.60
2014,11,10,17,04,5.50
2014,11,10,17,05,5.50
2014,11,10,17,06,5.40
2014,11,10,17,07,5.40
2014,11,10,17,08,5.40
2014,11,10,17,09,5.30
2014,11,10,17,10,5.30
2014,11,10,17,11,5.30
2014,11,10,17,12,5.30
2014,11,10,17,13,5.20
2014,11,10,17,14,5.20
2014,11,10,17,15,5.20
2014,11,10,17,16,5.20
2014,11,10,17,17,5.10
2014,11,10,17,18,5.10
2014,11,10,17,19,5.10
2014,11,10,17,20,5.00
2014,11,10,17,21,5.00
2014,11,10,17,22,5.00
2014,11,10,17,23,4.90
2014,11,10,17,24,4.90
2014,11,10,17,25,4.90
2014,11,10,17,26,4.80
2014,11,10,17,27,4.80
2014,11,10,17,28,4.80
2014,11,10,17,29,4.80
2014,11,10,17,30,4.70
2014,11,10,17,31,4.70
2014,11,10,17,32,4.70
2014,11,10,17,33,4.70
2014,11,10,17,34,4.60
2014,11,10,17,35,4.60
2014,11,10,17,36,4.60
2014,11,10,17,37,4.60
2014,11,10,17,38,4.50
2014,11,10,17,39,4.50
2014,11,10,17,40,4.50
2014,11,10,17,41,4.50
2014,11,10,17,42,4.40
2014,11,10,17,43,4.40
2014,11,10,17,44,4.40
2014,11,10,17,45,4.40
2014,11,10,17,46,4.40
2014,11,10,17,47,4.30
2014,11,10,17,48,4.30
2014,11,10,17,49,4.30
2014,11,10,17,50,4.30
2014,11,10,17,51,4.30
2014,11,10,17,52,4.30
2014,11,10,17,53,4.30
2014,11,10,17,54,4.30